User: anonymous   Login
Location: Griffin Ranch
(33.6186°N, 110.6622°W)
Time: 23:18:22
(UTC-07:00)
Language:

Cosmos 1812 - Orbit

View from above orbital plane
View from above orbital plane
View from above satellite
View from above satellite

Ground track
Ground track

The orbit data is extracted from the following two-line orbital elements,

1 17295U 87003A   17080.92468124 +.00000444 +00000-0 +22501-4 0  9990
2 17295 082.5141 230.8324 0004926 078.7207 281.4578 15.14343771645524
Epoch (UTC): 21 March 2017 22:11:32
Eccentricity: 0.0004926
inclination: 82.5141°
perigee height: 519 km
apogee height: 526 km
right ascension of ascending node: 230.8324°
argument of perigee: 78.7207°
revolutions per day: 15.14343771
mean anomaly at epoch: 281.4578°
orbit number at epoch: 64552

The dashed part of the orbit path shows where the satellite is in the earth's shadow,  

DLR